Accueil
METAR-TAF:

METAR-TAF

Aéroports :

Poteau, Oklahoma, États-Unis

latitude: 35-01-18N, longitude: 094-37-17W, altitude: 138 m

Observation

Le bulletin a été fait il y a 28 minutes, à 10:15 UTC
Vent 5 kt de nord
Température 18°C
Humidité 94%
Pression 1016 hPa
Visibilité: 11.3 km
Ciel couvert à une hauteur de 1500 ft
pluie

METAR: KRKR 221015Z AUTO 01005KT 7SM RA OVC015 18/17 A2999 RMK AO2 P0004

Heure: 05:43 (10:43 UTC)


TAF: absent

Observations et prévisions météorologiques de plus de 4000 aéroports (messages METAR et TAF).

Les stations disponibles sont représentées par des disques jaunes et rouges sur la carte.

Passer la souris dessus pour voir le nom de la station.

Cliquer dessus pour voir les observations et prévisions météorologiques.

Pour changer de carte: cliquez sur les boutons verts avec une croix noire pour zoomer, sur le bouton vert avec un tiret pour effectuer un zoom arrière, ou sur les flèches vertes pour les cartes adjacentes.


METAR-TAF: